SCP
0 0 0 0 -0 -0 -0 -0 0 0 0 0 0 0 -0 -0 -0 0 0 0 0 0 0 0 0 0 0 0 0 0 0 0 0 0 0 0 0 0 0 0 0 0 0 0 0 0 0 0 0 0 0 0 0 0
0 0 0 0 0 -0 0 -0 0 0 0 0 0 0 -0 -0 -0 0 0 0 0 0 0 0 0 0 0 0 0 0 0 0 0 0 0 0 0 0 0 0 0 0 0 0 0 0 0 0 0 0 0 0 0 0
0 0 0 0 0 0 -0 -0 -0 0 0 0 0 0 -0 0 0 0 0 0 0 0 0 0 0 0 0 0 0 0 0 0 0 0 0 0 0 0 0 0 0 0 0 0 0 0 0 0 0 0 0 0 0 0
0 0 0 0 0 0 -0 -0 -0 0 0 0 0 0 0 0 0 0 0 0 0 0 0 0 0 0 0 0 0 0 0 0 0 0 0 0 0 0 0 0 0 0 0 0 0 0 0 0 0 0 0 0 0 0
0 0 0 0 0 0 -0 -0 -0 -0 -0 -0 0 0 0 0 0 0 0 0 0 0 0 0 0 0 0 0 0 0 0 0 0 0 0 0 0 0 0 0 0 0 0 0 0 0 0 0 0 0 0 0 0 0
0 0 0 0 0 0 0 -0 -0 -0 -0 -0 -0 0 0 0 0 0 0 0 0 0 0 0 0 0 0 0 0 0 0 0 0 0 0 0 0 0 0 0 0 0 0 0 0 0 -0 -0 -0 0 0 0 0 0
0 0 0 0 0 0 0 -0 -0 -0 -0 -0 -0 -0 -0 0 0 0 0 0 0 0 0 -0 0 0 0 0 0 0 0 0 0 0 0 0 0 0 0 0 0 0 0 0 0 0 0 0 0 0 0 0 0 0
0 0 0 0 0 0 0 -0 -0 -0 -0 -0 -0 0 0 0 0 0 0 -0 0 0 0 0 0 0 0 0 0 0 0 0 0 0 0 0 0 0 0 0 0 0 0 0 0 0 0 0 0 0 -0 0 0 0
0 0 0 0 0 0 0 -0 -0 -0 -0 -0 -0 0 0 0 0 0 0 -0 0 0 0 0 0 0 0 0 0 0 0 0 0 0 0 0 0 0 0 0 0 0 0 0 0 0 0 0 0 0 0 -0 -0 0
0 -0 0 0 0 0 -0 -0 -0 -0 -0 -0 0 0 0 0 0 -0 0 0 0 0 0 0 0 0 0 0 0 0 0 0 0 0 -0 0 -0 -0 -0 -0 -0 -0 -0 -0 0 0 0 0 0 0 0 0 -0 0
-0 -0 0 0 0 0 -0 -0 -0 -0 -0 -0 0 0 0 0 0 0 0 0 0 0 0 0 0 0 0 0 0 0 0 0 0 0 -0 -0 -0 -0 -0 -0 -0 -0 0 0 -0 -0 -0 0 0 0 0 0 0 0
-0 -0 0 -0 -0 -0 -0 -0 0 -0 -0 0 0 0 0 0 0 0 0 0 0 0 0 0 0 0 0 0 0 0 0 0 0 -0 -0 -0 -0 -0 -0 -0 -0 -0 0 0 0 -0 -0 0 0 0 0 0 0 0
0 0 0 -0 -0 -0 -0 -0 0 -0 -0 0 0 0 0 0 0 0 0 0 0 0 0 0 0 0 0 0 0 0 0 0 0 0 0 0 0 0 0 0 0 0 0 0 0 0 0 0 0 0 0 0 0 0
-0 -0 -0 -0 -0 0 -0 0 0 -0 0 0 0 0 0 0 0 0 0 0 0 0 0 0 0 0 0 0 0 0 0 0 0 0 0 0 0 0 0 0 0 0 0 0 0 0 0 0 0 0 0 0 0 0
-0 -0 -0 0 -0 -0 -0 -0 -0 0 0 0 0 0 0 0 0 0 0 0 0 0 0 0 0 0 0 0 0 0 0 0 0 0 0 0 0 0 0 0 0 0 0 -0 0 0 0 0 0 0 0 0 0 0
-0 -0 -0 -0 -0 -0 -0 -0 0 0 0 0 0 0 0 0 0 0 0 0 0 0 0 0 0 0 0 0 0 0 0 0 0 0 0 0 0 0 0 0 0 0 0 0 -0 -0 -0 -0 0 0 0 0 0 0
0 0 0 -0 -0 -0 -0 0 0 0 0 0 0 0 0 0 0 0 0 0 0 0 0 0 0 0 0 0 0 0 0 0 0 0 0 0 0 0 0 0 0 0 0 0 -0 -0 -0 0 0 -0 0 0 0 0
-0 0 -0 -0 0 0 0 0 0 0 0 0 0 0 0 0 0 0 0 0 0 0 0 0 0 0 0 0 0 0 0 0 0 0 0 0 0 0 0 0 0 0 0 0 0 0 0 -0 -0 -0 -0 0 0 0
-0 -0 -0 -0 0 0 0 0 0 0 0 0 0 0 0 0 0 0 0 0 0 0 0 0 0 0 0 0 0 0 0 0 0 0 0 0 0 0 0 0 0 0 0 0 0 0 0 -0 -0 -0 -0 -0 -0 0
-0 -0 -0 -0 -0 0 0 0 0 0 0 0 0 0 0 0 0 0 0 0 0 0 0 0 0 0 0 0 0 0 0 0 0 0 0 0 0 0 0 0 0 0 0 0 0 0 0 0 0 0 0 -0 0 -0
0 -0 0 -0 -0 0 0 0 0 0 0 0 0 0 0 0 0 0 0 0 0 0 0 0 0 0 0 0 0 0 0 0 0 0 0 0 0 0 0 0 0 0 0 0 0 0 0 0 0 0 0 0 0 0
-0 -0 0 -0 -0 -0 0 0 0 0 0 0 0 0 0 0 0 0 0 0 0 0 0 0 0 0 0 0 0 0 0 0 0 0 0 0 0 0 0 0 0 0 0 0 0 0 0 0 0 0 0 0 0 0
-0 -0 -0 -0 0 0 0 0 0 0 0 0 0 0 0 0 0 0 0 0 0 0 0 0 0 0 0 0 0 0 0 0 0 0 0 0 0 0 0 0 0 0 0 0 0 0 0 0 0 0 0 0 0 0
-0 -0 0 0 0 0 0 0 0 0 0 0 0 0 0 0 0 0 0 0 0 0 0 0 0 0 0 0 0 0 0 0 0 0 0 0 0 0 0 0 0 0 0 0 0 0 0 0 0 0 0 0 0 0
0 0 0 0 0 0 0 0 0 0 0 0 0 0 0 0 0 0 0 0 0 0 0 0 0 0 0 0 0 0 0 0 0 0 0 0 0 0 0 0 0 0 0 0 0 0 0 0 0 0 0 0 0 0
0 0 0 0 0 0 0 0 0 0 0 0 0 0 0 0 0 0 0 0 0 0 0 0 0 0 0 0 0 0 0 0 0 0 0 0 0 0 0 0 0 0 -0 -0 -0 0 0 0 0 0 0 -0 -0 0
0 0 0 0 0 0 0 0 0 0 0 0 0 0 0 0 0 0 0 0 0 0 0 0 0 0 0 0 0 0 0 0 0 0 0 0 -0 -0 -0 -0 -0 -0 -0 0 0 0 0 0 0 0 0 0 0 0
0 0 0 0 0 0 0 0 0 0 -0 0 0 0 0 0 0 0 0 0 0 0 0 0 0 0 0 0 0 0 0 0 0 0 0 0 0 -0 -0 -0 -0 -0 0 0 0 0 0 0 0 0 0 0 0 0
0 0 0 0 0 0 0 0 0 0 0 0 0 0 0 0 0 0 0 0 0 0 0 0 0 0 0 0 0 0 0 0 0 0 0 0 0 -0 -0 -0 0 0 0 0 0 0 0 0 0 0 0 0 0 0
0 0 0 0 0 -0 0 0 0 0 -0 -0 0 0 0 -0 0 0 0 0 0 0 0 0 0 0 0 0 0 0 0 0 0 0 0 0 0 0 0 0 0 0 0 0 0 0 0 0 0 0 0 0 0 0
0 0 0 0 0 0 0 0 0 -0 -0 -0 -0 0 0 0 0 -0 0 0 0 0 0 0 0 0 0 0 0 0 0 -0 -0 0 0 0 0 0 0 0 0 0 0 0 0 0 0 0 0 0 0 0 0 0
0 0 0 0 0 0 0 0 0 0 0 0 0 0 0 0 0 0 0 0 0 0 0 0 0 0 0 0 0 0 0 0 0 0 -0 0 0 0 0 0 0 0 0 0 0 0 0 0 0 0 0 0 0 0
0 0 0 0 0 0 0 0 0 0 0 0 0 0 0 0 0 0 0 0 0 0 0 0 0 0 0 0 0 0 0 0 0 0 0 0 0 0 0 0 0 0 0 0 0 0 0 0 0 0 0 0 0 0
Wind_Speed_500mb
54 56 57 59 61 64 65 65 65 65 70 74 72 77 78 72 63 54 29 16 23 14 38 48 45 19 7 10 4 7 4 4 6 4 7 8 8 8 0 5 7 11 10 9 4 6 14 23 14 15 17 17 26 48
52 54 56 60 62 65 67 68 68 68 70 75 76 78 79 69 59 52 27 12 27 28 28 42 44 60 58 44 39 16 8 11 13 7 3 3 5 1 7 6 2 4 13 8 16 13 12 60 25 49 28 25 29 43
54 55 57 58 62 65 67 70 71 71 72 76 78 80 78 63 49 44 28 14 9 15 26 10 6 44 39 26 24 19 15 16 14 17 14 5 6 8 8 10 6 7 8 7 2 10 20 29 49 42 41 44 37 37
56 56 59 61 61 63 67 71 74 75 74 78 80 83 78 55 36 34 18 11 9 8 6 11 39 49 27 22 19 32 49 19 15 18 9 6 6 16 7 7 9 8 11 10 9 14 22 30 40 46 41 44 40 34
58 58 59 61 62 64 67 72 75 78 77 78 81 86 72 42 24 11 14 13 9 9 6 21 18 58 53 16 0 11 25 23 15 9 5 7 9 6 4 5 7 30 10 6 6 34 37 49 40 36 39 48 55 49
59 58 57 60 62 64 68 73 78 79 79 80 83 85 53 26 11 6 2 8 17 18 10 7 19 17 49 38 37 27 13 2 9 6 9 9 4 1 5 6 26 51 60 54 19 54 59 68 76 67 47 50 51 54
56 58 58 58 62 65 69 74 79 80 80 82 84 70 36 6 7 6 5 2 10 21 5 11 20 17 37 26 20 12 23 16 18 5 6 9 16 5 8 9 37 43 59 65 44 46 33 35 38 47 56 51 49 51
56 55 58 59 62 67 69 73 79 80 81 81 79 35 11 9 8 6 2 6 12 10 5 2 8 17 17 14 12 18 12 11 8 7 16 21 18 20 6 25 40 41 44 50 67 58 41 36 24 38 50 52 49 48
61 54 55 60 62 66 67 71 78 79 80 81 57 12 4 2 1 11 29 14 2 8 3 1 2 8 14 12 13 8 5 5 5 14 9 9 4 6 20 42 51 58 38 47 74 67 63 43 48 40 23 45 60 55
61 60 55 60 62 65 68 71 77 77 78 72 33 7 2 12 31 8 4 1 3 3 4 5 5 7 9 9 7 6 3 2 4 16 8 4 4 6 25 38 52 61 55 44 44 59 68 59 56 41 50 29 51 61
59 57 54 56 60 64 69 71 70 69 74 57 34 10 31 19 2 1 1 1 1 3 6 8 14 10 22 1 5 6 1 5 7 6 2 1 5 17 44 49 57 52 53 48 42 43 47 45 49 48 41 37 25 55
60 59 53 52 61 64 64 65 57 62 57 60 41 38 18 7 3 2 1 2 1 5 5 6 26 18 5 6 5 14 6 6 6 8 1 3 5 37 42 53 56 53 53 52 51 45 52 49 43 45 33 30 25 32
55 57 54 56 58 58 58 55 53 58 60 37 7 7 6 2 9 4 4 5 5 7 8 24 15 7 2 15 11 7 8 6 4 5 4 7 25 48 58 60 59 58 57 56 56 49 45 44 33 37 35 27 15 9
52 51 53 56 56 54 55 55 55 54 33 8 6 11 5 7 3 5 6 7 9 11 28 27 4 11 11 9 6 7 3 5 7 8 6 5 41 56 58 58 56 60 62 59 57 51 51 47 47 39 33 29 15 11
55 54 50 42 44 51 53 53 47 40 11 8 5 6 7 7 4 1 4 1 6 20 23 4 11 10 10 8 6 5 9 5 3 7 7 34 49 53 66 64 65 71 58 52 47 45 46 43 40 33 24 23 24 23
58 55 45 51 61 56 50 46 30 5 7 8 11 6 8 1 6 2 4 4 12 14 5 10 7 6 8 4 7 3 4 5 7 6 29 37 48 56 63 66 69 65 56 63 55 30 40 40 28 15 4 9 7 22
54 53 52 51 63 52 43 24 6 7 8 8 11 16 26 20 7 6 6 3 10 7 4 7 7 3 4 5 2 6 7 7 19 23 21 34 45 52 56 61 66 65 58 63 43 29 33 30 32 24 19 16 11 6
54 49 46 46 52 46 15 3 5 7 10 14 7 9 4 5 6 13 5 6 2 4 4 4 8 6 4 3 6 6 12 15 19 18 22 32 42 45 48 53 59 58 64 57 32 17 34 33 37 35 21 18 13 6
55 50 41 25 29 35 12 3 5 7 9 12 13 9 7 5 8 14 14 12 12 13 18 7 7 3 4 8 10 16 14 14 15 9 22 33 36 41 44 46 48 51 57 56 51 56 46 42 46 44 40 34 33 24
40 33 16 18 18 10 9 9 7 11 8 7 15 11 6 5 22 20 17 19 15 8 6 4 7 7 7 8 13 8 8 8 6 15 23 29 35 37 39 40 45 44 43 48 51 49 50 51 46 46 43 42 39 38
31 21 21 16 12 11 10 9 8 8 13 10 16 11 5 15 22 20 15 17 4 4 5 7 8 7 6 7 6 3 8 4 9 16 20 25 30 31 35 39 43 44 47 51 47 45 46 44 40 39 40 43 38 40
22 24 25 10 6 6 10 10 13 22 12 13 18 9 6 8 12 13 14 6 6 6 6 8 11 9 7 11 6 2 6 4 10 12 15 17 20 28 31 36 40 46 47 46 46 45 44 41 40 43 47 50 49 51
19 20 14 5 6 7 12 11 8 8 5 6 5 3 5 8 11 19 4 5 6 10 8 14 7 10 12 16 9 3 4 7 7 10 10 11 17 24 25 28 32 41 50 43 39 38 40 40 41 45 47 51 54 58
17 7 6 6 7 9 10 7 10 9 8 4 3 2 4 6 19 3 3 7 12 23 21 17 13 22 25 18 10 3 8 7 2 6 9 14 20 24 28 31 33 32 36 46 51 50 49 50 51 56 58 60 61 61
8 8 6 8 8 7 7 7 8 6 4 5 4 4 5 10 4 4 4 6 25 27 26 20 22 18 16 20 14 8 9 4 3 9 13 8 15 20 19 24 26 23 21 27 32 37 48 54 56 56 55 54 56 57
7 7 9 6 7 7 6 7 9 10 6 5 6 2 4 5 2 4 5 13 28 28 30 33 31 28 24 10 7 5 11 12 19 28 32 30 27 24 24 24 31 35 35 37 39 40 42 43 42 41 42 43 43 43
7 10 12 13 13 15 7 13 15 7 4 5 6 4 4 3 6 5 5 12 20 21 23 25 21 13 10 19 12 14 21 29 29 32 34 36 37 35 33 37 39 37 34 34 34 33 32 29 24 21 23 25 24 25
14 10 5 10 15 10 6 9 6 5 6 1 10 8 7 6 4 3 5 12 15 12 18 16 11 11 9 13 14 17 23 29 29 24 20 20 22 25 27 27 22 21 19 15 13 12 14 9 12 15 14 19 22 19
9 14 13 14 10 10 8 7 8 5 8 6 4 4 5 7 23 25 29 22 19 19 21 24 24 23 20 19 17 15 11 11 23 24 21 17 18 19 19 18 16 12 13 12 5 15 8 5 9 14 11 12 15 15
13 19 11 10 8 8 15 20 23 29 35 27 18 24 35 39 31 29 30 28 33 31 26 24 24 34 34 33 31 29 20 13 19 20 19 16 13 16 19 19 18 16 11 5 5 8 8 7 7 4 4 7 8 10
16 8 11 13 12 28 38 39 43 48 54 58 52 47 46 43 37 34 36 40 42 37 28 41 40 39 37 36 39 34 29 26 30 21 15 17 13 11 15 20 19 19 21 17 12 1 5 7 9 12 12 13 14 17
13 15 14 9 17 28 32 40 31 26 29 27 37 39 43 43 31 36 32 31 41 50 35 42 49 46 44 36 29 27 13 15 20 26 26 21 12 10 10 10 12 11 12 15 12 6 2 3 6 8 8 7 8 6
28 35 35 27 14 9 5 16 8 9 12 14 21 34 39 34 18 18 19 20 26 26 26 30 40 43 38 26 23 31 28 18 19 27 30 26 19 16 16 13 14 13 11 10 9 6 5 3 2 2 2 2 3 5
Wind_Direction_500mb
337 338 340 341 343 344 345 347 347 349 351 352 351 350 347 344 343 346 337 272 251 256 280 277 272 234 268 316 186 316 50 294 58 107 155 218 196 235 311 227 185 180 165 207 171 198 277 160 137 171 213 212 207 203
331 333 336 337 339 340 340 343 344 343 347 349 349 349 346 343 338 343 351 285 274 268 270 282 279 280 284 280 267 240 249 184 193 99 197 120 217 183 162 240 354 255 189 204 178 213 225 177 200 217 242 233 207 204
326 329 331 333 334 335 337 339 341 340 342 346 347 347 343 340 333 339 341 340 317 287 303 338 43 336 322 296 277 228 226 218 205 227 172 184 217 127 182 236 219 256 173 202 112 247 234 218 230 256 255 250 242 223
322 325 326 329 330 332 333 335 337 337 339 342 345 344 340 336 331 338 345 346 359 321 328 323 353 354 320 310 271 263 233 232 220 188 166 159 188 188 217 230 189 239 159 224 245 284 269 252 254 259 249 244 241 230
318 321 323 325 328 329 330 331 333 335 336 340 343 341 337 332 333 8 56 60 42 13 292 300 354 26 30 34 327 263 239 219 188 167 151 216 196 150 199 95 57 341 4 300 270 301 292 274 261 278 252 254 253 233
318 319 321 323 326 329 329 330 331 333 335 338 341 338 333 327 324 195 210 37 12 357 331 337 331 312 10 12 32 36 38 34 328 285 263 248 232 255 128 137 15 353 343 322 291 313 301 275 271 278 263 261 244 237
319 319 321 323 325 328 328 328 328 332 334 337 342 337 338 346 83 88 106 33 0 344 303 307 334 338 344 360 3 349 305 298 268 257 210 318 3 155 44 21 316 335 339 329 329 345 334 288 260 265 260 253 242 238
315 318 321 323 325 328 328 327 327 331 334 337 342 342 45 88 80 75 179 225 323 322 289 357 278 324 334 329 317 316 299 331 12 2 41 4 23 24 37 310 319 327 334 343 345 353 347 1 332 301 265 254 237 235
310 313 320 322 324 327 330 328 327 332 334 339 347 352 74 96 328 304 303 304 194 196 238 177 223 280 309 289 280 290 340 17 46 48 78 51 4 44 302 298 323 330 332 346 348 348 350 355 355 3 322 263 234 235
304 307 308 315 321 325 328 328 329 332 334 343 354 2 191 316 312 331 114 158 104 187 248 233 225 261 265 293 308 359 6 314 45 57 98 50 196 195 355 346 340 339 331 331 322 350 344 341 334 339 338 306 250 238
301 303 308 310 318 322 327 329 331 334 341 351 343 310 314 333 23 145 133 161 190 319 232 260 267 260 324 9 259 31 4 356 21 359 331 63 351 0 346 339 335 332 331 328 323 307 328 318 317 320 323 344 264 241
303 302 305 303 313 319 321 326 329 334 338 326 308 295 313 339 337 65 32 24 41 249 262 260 318 307 336 337 42 16 50 32 57 313 11 22 261 348 339 336 335 332 332 327 326 312 314 316 309 307 309 313 340 253
311 308 308 307 313 316 318 322 323 324 330 329 318 300 325 301 36 70 7 319 320 287 305 317 320 12 61 22 69 62 45 31 141 30 321 230 355 345 341 336 332 330 325 324 323 320 311 314 303 296 291 287 338 357
314 312 314 314 310 313 313 313 320 322 328 302 310 318 174 307 242 191 187 210 287 309 318 314 2 41 16 50 6 71 321 48 23 8 275 314 343 343 346 341 334 331 334 327 326 325 320 316 310 294 275 283 259 289
315 318 324 325 322 312 309 311 314 307 238 246 242 253 234 276 259 246 266 264 350 324 340 39 57 49 17 69 41 43 23 354 341 241 297 328 337 343 342 342 337 332 329 335 333 327 319 326 324 294 277 263 245 249
315 322 329 327 323 317 317 313 315 242 211 232 234 274 255 121 343 125 153 332 336 336 47 50 76 61 37 76 56 72 77 252 260 293 332 339 343 342 343 342 342 341 346 348 351 351 14 13 1 346 357 248 256 246
316 321 325 323 319 322 320 311 236 228 230 230 242 255 265 265 251 236 224 287 5 21 60 57 57 91 119 70 134 147 190 228 297 323 336 349 349 349 345 344 347 352 356 5 18 22 19 27 21 44 61 46 43 178
319 326 329 326 321 335 343 215 243 248 248 246 249 330 276 252 208 192 154 56 33 89 84 120 122 71 123 165 275 243 263 290 310 325 347 346 347 350 350 348 354 7 11 19 35 12 19 39 50 46 61 71 104 135
321 328 332 337 332 334 315 270 247 269 261 291 289 292 286 239 222 157 138 119 101 112 121 87 88 146 229 207 248 278 282 307 328 345 357 355 356 357 353 357 3 14 28 41 48 49 50 44 49 60 63 62 67 72
325 321 322 326 321 311 296 279 277 273 279 321 296 287 296 239 170 162 159 163 143 130 90 120 185 201 206 278 269 279 318 332 353 354 352 2 5 2 7 13 15 19 30 35 40 40 45 44 49 50 51 54 56 54
340 329 333 329 306 248 273 297 272 283 307 287 289 303 276 177 177 179 179 173 117 119 171 203 193 192 267 279 208 296 8 22 28 7 16 10 11 17 25 32 30 33 36 40 43 43 42 45 39 43 47 50 55 61
342 340 338 349 299 275 271 261 278 303 280 275 294 242 191 182 180 195 184 173 169 162 178 182 175 207 240 192 192 39 31 50 48 8 14 34 27 32 36 41 42 44 48 50 49 47 48 52 57 60 65 69 69 70
334 328 316 282 283 266 277 288 263 259 244 253 256 201 172 168 174 168 158 177 171 163 157 169 222 266 215 185 182 115 68 116 61 14 37 64 38 51 54 53 51 55 52 53 58 65 70 72 72 77 80 81 80 78
341 288 280 279 243 267 288 269 243 261 256 251 248 240 148 136 155 169 196 208 187 177 187 201 207 168 173 182 180 146 122 128 72 51 64 104 73 69 72 64 58 57 66 65 63 68 73 77 78 79 79 79 78 80
297 260 250 270 264 269 265 260 237 263 296 323 21 301 186 157 134 181 210 226 193 198 202 211 211 213 196 182 170 123 96 85 86 100 79 70 120 107 79 69 68 68 71 82 79 79 82 82 80 79 79 80 82 82
259 238 210 258 228 197 277 303 9 352 308 304 264 183 158 100 180 240 231 215 204 205 210 217 208 195 197 187 148 152 148 126 118 107 95 89 90 107 115 105 94 87 84 85 94 92 89 84 80 76 79 82 84 85
252 266 239 243 278 306 311 293 270 140 273 271 312 300 143 229 219 245 234 208 217 225 226 221 218 233 199 176 145 132 138 135 121 112 105 100 96 96 104 112 112 103 95 90 90 91 92 86 76 74 82 93 92 84
243 284 242 293 318 292 244 264 274 246 213 269 343 6 2 357 264 255 252 249 240 240 217 209 210 191 165 160 147 136 150 157 158 154 143 131 123 117 119 124 119 112 106 88 81 100 120 83 59 103 110 92 97 91
261 254 288 277 276 279 272 243 243 249 35 357 186 231 273 301 310 322 311 271 226 222 214 196 183 183 181 181 179 170 160 170 180 178 169 169 194 191 174 150 135 125 120 124 73 46 109 140 128 134 111 103 105 102
254 248 243 255 225 240 234 241 264 270 291 309 307 295 291 288 284 277 287 265 230 229 234 232 216 207 204 202 197 193 192 190 178 181 180 175 155 168 172 174 183 175 157 162 156 52 75 117 131 110 73 93 95 90
258 277 234 237 253 268 275 284 274 272 271 271 268 272 275 271 276 275 266 274 259 235 234 223 220 219 220 223 217 205 198 192 183 183 189 189 181 178 164 163 161 171 184 186 192 165 51 76 76 72 78 91 91 87
246 232 220 227 263 293 303 291 276 257 259 253 247 247 249 259 269 275 272 265 242 227 235 229 232 237 235 230 240 236 236 227 205 194 200 208 206 194 175 174 178 174 173 174 187 209 249 36 54 48 60 82 92 95
249 253 249 269 268 270 311 352 285 266 236 227 236 251 246 237 230 249 257 271 250 244 253 252 251 246 230 224 224 224 226 229 210 199 203 203 203 203 191 181 180 184 184 189 200 218 227 242 293 343 348 331 343 350
Wind_Speed_850mb
54 56 57 59 61 64 65 65 65 65 70 74 72 77 78 72 63 54 29 16 23 14 38 48 45 19 7 10 4 7 4 4 6 4 7 8 8 8 0 5 7 11 10 9 4 6 14 23 14 15 17 17 26 48
52 54 56 60 62 65 67 68 68 68 70 75 76 78 79 69 59 52 27 12 27 28 28 42 44 60 58 44 39 16 8 11 13 7 3 3 5 1 7 6 2 4 13 8 16 13 12 60 25 49 28 25 29 43
54 55 57 58 62 65 67 70 71 71 72 76 78 80 78 63 49 44 28 14 9 15 26 10 6 44 39 26 24 19 15 16 14 17 14 5 6 8 8 10 6 7 8 7 2 10 20 29 49 42 41 44 37 37
56 56 59 61 61 63 67 71 74 75 74 78 80 83 78 55 36 34 18 11 9 8 6 11 39 49 27 22 19 32 49 19 15 18 9 6 6 16 7 7 9 8 11 10 9 14 22 30 40 46 41 44 40 34
58 58 59 61 62 64 67 72 75 78 77 78 81 86 72 42 24 11 14 13 9 9 6 21 18 58 53 16 0 11 25 23 15 9 5 7 9 6 4 5 7 30 10 6 6 34 37 49 40 36 39 48 55 49
59 58 57 60 62 64 68 73 78 79 79 80 83 85 53 26 11 6 2 8 17 18 10 7 19 17 49 38 37 27 13 2 9 6 9 9 4 1 5 6 26 51 60 54 19 54 59 68 76 67 47 50 51 54
56 58 58 58 62 65 69 74 79 80 80 82 84 70 36 6 7 6 5 2 10 21 5 11 20 17 37 26 20 12 23 16 18 5 6 9 16 5 8 9 37 43 59 65 44 46 33 35 38 47 56 51 49 51
56 55 58 59 62 67 69 73 79 80 81 81 79 35 11 9 8 6 2 6 12 10 5 2 8 17 17 14 12 18 12 11 8 7 16 21 18 20 6 25 40 41 44 50 67 58 41 36 24 38 50 52 49 48
61 54 55 60 62 66 67 71 78 79 80 81 57 12 4 2 1 11 29 14 2 8 3 1 2 8 14 12 13 8 5 5 5 14 9 9 4 6 20 42 51 58 38 47 74 67 63 43 48 40 23 45 60 55
61 60 55 60 62 65 68 71 77 77 78 72 33 7 2 12 31 8 4 1 3 3 4 5 5 7 9 9 7 6 3 2 4 16 8 4 4 6 25 38 52 61 55 44 44 59 68 59 56 41 50 29 51 61
59 57 54 56 60 64 69 71 70 69 74 57 34 10 31 19 2 1 1 1 1 3 6 8 14 10 22 1 5 6 1 5 7 6 2 1 5 17 44 49 57 52 53 48 42 43 47 45 49 48 41 37 25 55
60 59 53 52 61 64 64 65 57 62 57 60 41 38 18 7 3 2 1 2 1 5 5 6 26 18 5 6 5 14 6 6 6 8 1 3 5 37 42 53 56 53 53 52 51 45 52 49 43 45 33 30 25 32
55 57 54 56 58 58 58 55 53 58 60 37 7 7 6 2 9 4 4 5 5 7 8 24 15 7 2 15 11 7 8 6 4 5 4 7 25 48 58 60 59 58 57 56 56 49 45 44 33 37 35 27 15 9
52 51 53 56 56 54 55 55 55 54 33 8 6 11 5 7 3 5 6 7 9 11 28 27 4 11 11 9 6 7 3 5 7 8 6 5 41 56 58 58 56 60 62 59 57 51 51 47 47 39 33 29 15 11
55 54 50 42 44 51 53 53 47 40 11 8 5 6 7 7 4 1 4 1 6 20 23 4 11 10 10 8 6 5 9 5 3 7 7 34 49 53 66 64 65 71 58 52 47 45 46 43 40 33 24 23 24 23
58 55 45 51 61 56 50 46 30 5 7 8 11 6 8 1 6 2 4 4 12 14 5 10 7 6 8 4 7 3 4 5 7 6 29 37 48 56 63 66 69 65 56 63 55 30 40 40 28 15 4 9 7 22
54 53 52 51 63 52 43 24 6 7 8 8 11 16 26 20 7 6 6 3 10 7 4 7 7 3 4 5 2 6 7 7 19 23 21 34 45 52 56 61 66 65 58 63 43 29 33 30 32 24 19 16 11 6
54 49 46 46 52 46 15 3 5 7 10 14 7 9 4 5 6 13 5 6 2 4 4 4 8 6 4 3 6 6 12 15 19 18 22 32 42 45 48 53 59 58 64 57 32 17 34 33 37 35 21 18 13 6
55 50 41 25 29 35 12 3 5 7 9 12 13 9 7 5 8 14 14 12 12 13 18 7 7 3 4 8 10 16 14 14 15 9 22 33 36 41 44 46 48 51 57 56 51 56 46 42 46 44 40 34 33 24
40 33 16 18 18 10 9 9 7 11 8 7 15 11 6 5 22 20 17 19 15 8 6 4 7 7 7 8 13 8 8 8 6 15 23 29 35 37 39 40 45 44 43 48 51 49 50 51 46 46 43 42 39 38
31 21 21 16 12 11 10 9 8 8 13 10 16 11 5 15 22 20 15 17 4 4 5 7 8 7 6 7 6 3 8 4 9 16 20 25 30 31 35 39 43 44 47 51 47 45 46 44 40 39 40 43 38 40
22 24 25 10 6 6 10 10 13 22 12 13 18 9 6 8 12 13 14 6 6 6 6 8 11 9 7 11 6 2 6 4 10 12 15 17 20 28 31 36 40 46 47 46 46 45 44 41 40 43 47 50 49 51
19 20 14 5 6 7 12 11 8 8 5 6 5 3 5 8 11 19 4 5 6 10 8 14 7 10 12 16 9 3 4 7 7 10 10 11 17 24 25 28 32 41 50 43 39 38 40 40 41 45 47 51 54 58
17 7 6 6 7 9 10 7 10 9 8 4 3 2 4 6 19 3 3 7 12 23 21 17 13 22 25 18 10 3 8 7 2 6 9 14 20 24 28 31 33 32 36 46 51 50 49 50 51 56 58 60 61 61
8 8 6 8 8 7 7 7 8 6 4 5 4 4 5 10 4 4 4 6 25 27 26 20 22 18 16 20 14 8 9 4 3 9 13 8 15 20 19 24 26 23 21 27 32 37 48 54 56 56 55 54 56 57
7 7 9 6 7 7 6 7 9 10 6 5 6 2 4 5 2 4 5 13 28 28 30 33 31 28 24 10 7 5 11 12 19 28 32 30 27 24 24 24 31 35 35 37 39 40 42 43 42 41 42 43 43 43
7 10 12 13 13 15 7 13 15 7 4 5 6 4 4 3 6 5 5 12 20 21 23 25 21 13 10 19 12 14 21 29 29 32 34 36 37 35 33 37 39 37 34 34 34 33 32 29 24 21 23 25 24 25
14 10 5 10 15 10 6 9 6 5 6 1 10 8 7 6 4 3 5 12 15 12 18 16 11 11 9 13 14 17 23 29 29 24 20 20 22 25 27 27 22 21 19 15 13 12 14 9 12 15 14 19 22 19
9 14 13 14 10 10 8 7 8 5 8 6 4 4 5 7 23 25 29 22 19 19 21 24 24 23 20 19 17 15 11 11 23 24 21 17 18 19 19 18 16 12 13 12 5 15 8 5 9 14 11 12 15 15
13 19 11 10 8 8 15 20 23 29 35 27 18 24 35 39 31 29 30 28 33 31 26 24 24 34 34 33 31 29 20 13 19 20 19 16 13 16 19 19 18 16 11 5 5 8 8 7 7 4 4 7 8 10
16 8 11 13 12 28 38 39 43 48 54 58 52 47 46 43 37 34 36 40 42 37 28 41 40 39 37 36 39 34 29 26 30 21 15 17 13 11 15 20 19 19 21 17 12 1 5 7 9 12 12 13 14 17
13 15 14 9 17 28 32 40 31 26 29 27 37 39 43 43 31 36 32 31 41 50 35 42 49 46 44 36 29 27 13 15 20 26 26 21 12 10 10 10 12 11 12 15 12 6 2 3 6 8 8 7 8 6
28 35 35 27 14 9 5 16 8 9 12 14 21 34 39 34 18 18 19 20 26 26 26 30 40 43 38 26 23 31 28 18 19 27 30 26 19 16 16 13 14 13 11 10 9 6 5 3 2 2 2 2 3 5
Wind_Direction_850mb
337 338 340 341 343 344 345 347 347 349 351 352 351 350 347 344 343 346 337 272 251 256 280 277 272 234 268 316 186 316 50 294 58 107 155 218 196 235 311 227 185 180 165 207 171 198 277 160 137 171 213 212 207 203
331 333 336 337 339 340 340 343 344 343 347 349 349 349 346 343 338 343 351 285 274 268 270 282 279 280 284 280 267 240 249 184 193 99 197 120 217 183 162 240 354 255 189 204 178 213 225 177 200 217 242 233 207 204
326 329 331 333 334 335 337 339 341 340 342 346 347 347 343 340 333 339 341 340 317 287 303 338 43 336 322 296 277 228 226 218 205 227 172 184 217 127 182 236 219 256 173 202 112 247 234 218 230 256 255 250 242 223
322 325 326 329 330 332 333 335 337 337 339 342 345 344 340 336 331 338 345 346 359 321 328 323 353 354 320 310 271 263 233 232 220 188 166 159 188 188 217 230 189 239 159 224 245 284 269 252 254 259 249 244 241 230
318 321 323 325 328 329 330 331 333 335 336 340 343 341 337 332 333 8 56 60 42 13 292 300 354 26 30 34 327 263 239 219 188 167 151 216 196 150 199 95 57 341 4 300 270 301 292 274 261 278 252 254 253 233
318 319 321 323 326 329 329 330 331 333 335 338 341 338 333 327 324 195 210 37 12 357 331 337 331 312 10 12 32 36 38 34 328 285 263 248 232 255 128 137 15 353 343 322 291 313 301 275 271 278 263 261 244 237
319 319 321 323 325 328 328 328 328 332 334 337 342 337 338 346 83 88 106 33 0 344 303 307 334 338 344 360 3 349 305 298 268 257 210 318 3 155 44 21 316 335 339 329 329 345 334 288 260 265 260 253 242 238
315 318 321 323 325 328 328 327 327 331 334 337 342 342 45 88 80 75 179 225 323 322 289 357 278 324 334 329 317 316 299 331 12 2 41 4 23 24 37 310 319 327 334 343 345 353 347 1 332 301 265 254 237 235
310 313 320 322 324 327 330 328 327 332 334 339 347 352 74 96 328 304 303 304 194 196 238 177 223 280 309 289 280 290 340 17 46 48 78 51 4 44 302 298 323 330 332 346 348 348 350 355 355 3 322 263 234 235
304 307 308 315 321 325 328 328 329 332 334 343 354 2 191 316 312 331 114 158 104 187 248 233 225 261 265 293 308 359 6 314 45 57 98 50 196 195 355 346 340 339 331 331 322 350 344 341 334 339 338 306 250 238
301 303 308 310 318 322 327 329 331 334 341 351 343 310 314 333 23 145 133 161 190 319 232 260 267 260 324 9 259 31 4 356 21 359 331 63 351 0 346 339 335 332 331 328 323 307 328 318 317 320 323 344 264 241
303 302 305 303 313 319 321 326 329 334 338 326 308 295 313 339 337 65 32 24 41 249 262 260 318 307 336 337 42 16 50 32 57 313 11 22 261 348 339 336 335 332 332 327 326 312 314 316 309 307 309 313 340 253
311 308 308 307 313 316 318 322 323 324 330 329 318 300 325 301 36 70 7 319 320 287 305 317 320 12 61 22 69 62 45 31 141 30 321 230 355 345 341 336 332 330 325 324 323 320 311 314 303 296 291 287 338 357
314 312 314 314 310 313 313 313 320 322 328 302 310 318 174 307 242 191 187 210 287 309 318 314 2 41 16 50 6 71 321 48 23 8 275 314 343 343 346 341 334 331 334 327 326 325 320 316 310 294 275 283 259 289
315 318 324 325 322 312 309 311 314 307 238 246 242 253 234 276 259 246 266 264 350 324 340 39 57 49 17 69 41 43 23 354 341 241 297 328 337 343 342 342 337 332 329 335 333 327 319 326 324 294 277 263 245 249
315 322 329 327 323 317 317 313 315 242 211 232 234 274 255 121 343 125 153 332 336 336 47 50 76 61 37 76 56 72 77 252 260 293 332 339 343 342 343 342 342 341 346 348 351 351 14 13 1 346 357 248 256 246
316 321 325 323 319 322 320 311 236 228 230 230 242 255 265 265 251 236 224 287 5 21 60 57 57 91 119 70 134 147 190 228 297 323 336 349 349 349 345 344 347 352 356 5 18 22 19 27 21 44 61 46 43 178
319 326 329 326 321 335 343 215 243 248 248 246 249 330 276 252 208 192 154 56 33 89 84 120 122 71 123 165 275 243 263 290 310 325 347 346 347 350 350 348 354 7 11 19 35 12 19 39 50 46 61 71 104 135
321 328 332 337 332 334 315 270 247 269 261 291 289 292 286 239 222 157 138 119 101 112 121 87 88 146 229 207 248 278 282 307 328 345 357 355 356 357 353 357 3 14 28 41 48 49 50 44 49 60 63 62 67 72
325 321 322 326 321 311 296 279 277 273 279 321 296 287 296 239 170 162 159 163 143 130 90 120 185 201 206 278 269 279 318 332 353 354 352 2 5 2 7 13 15 19 30 35 40 40 45 44 49 50 51 54 56 54
340 329 333 329 306 248 273 297 272 283 307 287 289 303 276 177 177 179 179 173 117 119 171 203 193 192 267 279 208 296 8 22 28 7 16 10 11 17 25 32 30 33 36 40 43 43 42 45 39 43 47 50 55 61
342 340 338 349 299 275 271 261 278 303 280 275 294 242 191 182 180 195 184 173 169 162 178 182 175 207 240 192 192 39 31 50 48 8 14 34 27 32 36 41 42 44 48 50 49 47 48 52 57 60 65 69 69 70
334 328 316 282 283 266 277 288 263 259 244 253 256 201 172 168 174 168 158 177 171 163 157 169 222 266 215 185 182 115 68 116 61 14 37 64 38 51 54 53 51 55 52 53 58 65 70 72 72 77 80 81 80 78
341 288 280 279 243 267 288 269 243 261 256 251 248 240 148 136 155 169 196 208 187 177 187 201 207 168 173 182 180 146 122 128 72 51 64 104 73 69 72 64 58 57 66 65 63 68 73 77 78 79 79 79 78 80
297 260 250 270 264 269 265 260 237 263 296 323 21 301 186 157 134 181 210 226 193 198 202 211 211 213 196 182 170 123 96 85 86 100 79 70 120 107 79 69 68 68 71 82 79 79 82 82 80 79 79 80 82 82
259 238 210 258 228 197 277 303 9 352 308 304 264 183 158 100 180 240 231 215 204 205 210 217 208 195 197 187 148 152 148 126 118 107 95 89 90 107 115 105 94 87 84 85 94 92 89 84 80 76 79 82 84 85
252 266 239 243 278 306 311 293 270 140 273 271 312 300 143 229 219 245 234 208 217 225 226 221 218 233 199 176 145 132 138 135 121 112 105 100 96 96 104 112 112 103 95 90 90 91 92 86 76 74 82 93 92 84
243 284 242 293 318 292 244 264 274 246 213 269 343 6 2 357 264 255 252 249 240 240 217 209 210 191 165 160 147 136 150 157 158 154 143 131 123 117 119 124 119 112 106 88 81 100 120 83 59 103 110 92 97 91
261 254 288 277 276 279 272 243 243 249 35 357 186 231 273 301 310 322 311 271 226 222 214 196 183 183 181 181 179 170 160 170 180 178 169 169 194 191 174 150 135 125 120 124 73 46 109 140 128 134 111 103 105 102
254 248 243 255 225 240 234 241 264 270 291 309 307 295 291 288 284 277 287 265 230 229 234 232 216 207 204 202 197 193 192 190 178 181 180 175 155 168 172 174 183 175 157 162 156 52 75 117 131 110 73 93 95 90
258 277 234 237 253 268 275 284 274 272 271 271 268 272 275 271 276 275 266 274 259 235 234 223 220 219 220 223 217 205 198 192 183 183 189 189 181 178 164 163 161 171 184 186 192 165 51 76 76 72 78 91 91 87
246 232 220 227 263 293 303 291 276 257 259 253 247 247 249 259 269 275 272 265 242 227 235 229 232 237 235 230 240 236 236 227 205 194 200 208 206 194 175 174 178 174 173 174 187 209 249 36 54 48 60 82 92 95
249 253 249 269 268 270 311 352 285 266 236 227 236 251 246 237 230 249 257 271 250 244 253 252 251 246 230 224 224 224 226 229 210 199 203 203 203 203 191 181 180 184 184 189 200 218 227 242 293 343 348 331 343 350